Terminal Aerodrome Forecast
Issued by NWS Quad Cities IA IL

Home | Current Version | Previous Version | Text Only | Print | Product List | Glossary On
Versions: 1 2 3 4 5 6 7 8 9 10 11 12 13 14 15 16 17
000
FTUS43 KDVN 260600 AAA
TAFMLI
TAF AMD
KMLI 260630Z 2607/2706 02010KT 1 1/2SM -SN OVC025
     FM260800 02011KT 4SM -SN OVC035
     FM261000 36011KT P6SM OVC040
     FM262200 32009KT P6SM SCT050=

USA.gov is the U.S. government's official web portal to all federal, state and local government web resources and services.